Location: Unspecified
(0.0000°N, 0.0000°E)
Time: 17:55:13
(UTC+00:00)

Hubble Space Telescope - Pass Details

Date: 19 October 2021
Orbit: 535 x 538 km, 28.5° (Epoch: 23 October)

Event Time Altitude Azimuth Distance (km) Brightness Sun altitude
Rises 18:34:05 0° 225° (SW) 2,667 5.3 -12.1°
Reaches altitude 10° 18:36:31 10° 214° (SW) 1,776 4.1 -12.7°
Maximum altitude 18:40:12 32° 150° (SSE) 929 1.8 -13.6°
Enters shadow 18:42:08 21° 104° (ESE) 1,220 2.0 -14.1°
